Hourly Weather Ruda

Today, 18 April, Sunday

Time Temperature Precipitation Wind Pressure Humidity
00:00 +5°C° 0.1 mm 2 mps 750 mmHg 81%
01:00 +5°C° 0.1 mm 2 mps 750 mmHg 83%
02:00 +5°C° 0 mm 2 mps 749 mmHg 85%
03:00 +5°C° 0.4 mm 2 mps 749 mmHg 88%
04:00 +5°C° 0.4 mm 2 mps 749 mmHg 91%
05:00 +5°C° 0.4 mm 2 mps 749 mmHg 93%
06:00 +5°C° 0.3 mm 2 mps 749 mmHg 93%
07:00 +5°C° 0.3 mm 2 mps 749 mmHg 93%
08:00 +5°C° 0.3 mm 2 mps 748 mmHg 93%
09:00 +6°C° 0.2 mm 2 mps 749 mmHg 92%
10:00 +6°C° 0.2 mm 2 mps 749 mmHg 90%
11:00 +5°C° 0.2 mm 3 mps 749 mmHg 89%
12:00 +5°C° 0 mm 3 mps 750 mmHg 84%
13:00 +7°C° 0 mm 3 mps 750 mmHg 79%
14:00 +7°C° 0 mm 3 mps 750 mmHg 75%
15:00 +8°C° 0 mm 2 mps 750 mmHg 72%
16:00 +8°C° 0 mm 2 mps 750 mmHg 69%
17:00 +10°C° 0 mm 1 mps 750 mmHg 66%
18:00 +9°C° 0 mm 1 mps 751 mmHg 71%
19:00 +7°C° 0 mm 2 mps 751 mmHg 76%
20:00 +6°C° 0 mm 2 mps 751 mmHg 81%
21:00 +5°C° 0 mm 2 mps 751 mmHg 83%
22:00 +5°C° 0 mm 2 mps 751 mmHg 86%
23:00 +4°C° 0 mm 2 mps 751 mmHg 88%

Tomorrow, 19 April, Monday

Time Temperature Precipitation Wind Pressure Humidity
00:00 +4°C° 0 mm 2 mps 751 mmHg 90%
01:00 +4°C° 0 mm 2 mps 751 mmHg 91%
02:00 +3°C° 0 mm 2 mps 751 mmHg 93%
03:00 +3°C° 0 mm 2 mps 751 mmHg 93%
04:00 +3°C° 0 mm 2 mps 751 mmHg 94%
05:00 +3°C° 0 mm 2 mps 751 mmHg 94%
06:00 +3°C° 0 mm 3 mps 751 mmHg 89%
07:00 +5°C° 0 mm 3 mps 751 mmHg 83%
08:00 +7°C° 0 mm 3 mps 751 mmHg 78%
09:00 +8°C° 0 mm 3 mps 751 mmHg 75%
10:00 +9°C° 0 mm 3 mps 751 mmHg 71%
11:00 +10°C° 0 mm 4 mps 751 mmHg 68%
12:00 +10°C° 0 mm 4 mps 751 mmHg 69%
13:00 +10°C° 0 mm 4 mps 751 mmHg 69%
14:00 +10°C° 0 mm 4 mps 751 mmHg 70%
15:00 +10°C° 0 mm 4 mps 751 mmHg 70%
16:00 +10°C° 0 mm 4 mps 750 mmHg 70%
17:00 +10°C° 0 mm 3 mps 750 mmHg 70%
18:00 +8°C° 0 mm 4 mps 750 mmHg 74%
19:00 +7°C° 0 mm 4 mps 750 mmHg 79%
20:00 +7°C° 0 mm 4 mps 750 mmHg 83%
21:00 +6°C° 0 mm 4 mps 750 mmHg 85%
22:00 +5°C° 0 mm 4 mps 750 mmHg 87%
23:00 +5°C° 0 mm 4 mps 750 mmHg 89%

Day after tomorrow, 20 April, Tuesday

Time Temperature Precipitation Wind Pressure Humidity
00:00 +5°C° 0 mm 4 mps 749 mmHg 88%
01:00 +4°C° 0 mm 4 mps 749 mmHg 87%
02:00 +4°C° 0 mm 4 mps 749 mmHg 87%
03:00 +4°C° 0 mm 4 mps 748 mmHg 88%
04:00 +4°C° 0 mm 4 mps 748 mmHg 90%
05:00 +4°C° 0 mm 4 mps 748 mmHg 91%
06:00 +4°C° 0 mm 4 mps 748 mmHg 90%
07:00 +3°C° 0 mm 5 mps 747 mmHg 89%
08:00 +3°C° 0 mm 5 mps 747 mmHg 88%
09:00 +5°C° 0 mm 5 mps 747 mmHg 84%
10:00 +6°C° 0 mm 5 mps 746 mmHg 79%
11:00 +7°C° 0 mm 5 mps 746 mmHg 74%
12:00 +7°C° 0 mm 5 mps 745 mmHg 70%
13:00 +8°C° 0 mm 6 mps 745 mmHg 67%
14:00 +8°C° 0 mm 6 mps 744 mmHg 63%
15:00 +8°C° 0 mm 6 mps 743 mmHg 67%
16:00 +6°C° 0 mm 7 mps 743 mmHg 71%
17:00 +5°C° 0 mm 7 mps 742 mmHg 75%
18:00 +4°C° 0 mm 7 mps 742 mmHg 78%
19:00 +4°C° 0 mm 7 mps 742 mmHg 81%
20:00 +3°C° 0 mm 7 mps 741 mmHg 84%
21:00 +3°C° 0.1 mm 7 mps 741 mmHg 85%
22:00 +2°C° 0.1 mm 7 mps 741 mmHg 86%
23:00 +2°C° 0.1 mm 7 mps 740 mmHg 86%

21 April, Wednesday

Time Temperature Precipitation Wind Pressure Humidity
00:00 +2°C° 0 mm 7 mps 740 mmHg 87%
01:00 +2°C° 0 mm 7 mps 740 mmHg 87%
02:00 +2°C° 0 mm 7 mps 740 mmHg 87%
03:00 +2°C° 0 mm 6 mps 741 mmHg 87%
04:00 +2°C° 0 mm 6 mps 741 mmHg 87%
05:00 +2°C° 0 mm 6 mps 742 mmHg 87%
06:00 +2°C° 0 mm 6 mps 742 mmHg 86%
07:00 +2°C° 0 mm 6 mps 743 mmHg 85%
08:00 +3°C° 0 mm 6 mps 743 mmHg 83%
09:00 +4°C° 0 mm 6 mps 744 mmHg 75%
10:00 +5°C° 0 mm 6 mps 744 mmHg 66%
11:00 +8°C° 0 mm 7 mps 744 mmHg 58%
12:00 +8°C° 0 mm 6 mps 745 mmHg 57%
13:00 +8°C° 0 mm 6 mps 745 mmHg 55%
14:00 +9°C° 0 mm 5 mps 746 mmHg 54%
15:00 +10°C° 0 mm 4 mps 746 mmHg 56%
16:00 +10°C° 0 mm 4 mps 746 mmHg 59%
17:00 +10°C° 0 mm 3 mps 747 mmHg 62%
18:00 +9°C° 0 mm 3 mps 747 mmHg 67%
19:00 +8°C° 0 mm 3 mps 747 mmHg 73%
20:00 +7°C° 0 mm 2 mps 748 mmHg 79%
21:00 +6°C° 0 mm 2 mps 748 mmHg 81%
22:00 +5°C° 0 mm 3 mps 748 mmHg 83%
23:00 +5°C° 0 mm 3 mps 749 mmHg 85%

22 April, Thursday

Time Temperature Precipitation Wind Pressure Humidity
00:00 +5°C° 0 mm 3 mps 749 mmHg 87%
01:00 +4°C° 0 mm 3 mps 749 mmHg 89%
02:00 +4°C° 0 mm 3 mps 749 mmHg 92%
03:00 +4°C° 0 mm 3 mps 749 mmHg 92%
04:00 +4°C° 0 mm 3 mps 749 mmHg 93%
05:00 +4°C° 0 mm 2 mps 749 mmHg 94%
06:00 +5°C° 0 mm 3 mps 750 mmHg 88%
07:00 +8°C° 0 mm 3 mps 750 mmHg 81%
08:00 +10°C° 0 mm 3 mps 750 mmHg 75%
09:00 +11°C° 0.1 mm 3 mps 750 mmHg 69%
10:00 +13°C° 0.1 mm 4 mps 751 mmHg 64%
11:00 +14°C° 0.1 mm 4 mps 751 mmHg 58%
12:00 +15°C° 0.2 mm 4 mps 751 mmHg 56%
13:00 +15°C° 0.2 mm 4 mps 750 mmHg 54%
14:00 +17°C° 0.2 mm 4 mps 750 mmHg 51%
15:00 +15°C° 0.4 mm 4 mps 750 mmHg 55%
16:00 +16°C° 0.4 mm 3 mps 751 mmHg 59%
17:00 +14°C° 0.4 mm 3 mps 751 mmHg 63%
18:00 +13°C° 0.3 mm 3 mps 751 mmHg 69%
19:00 +11°C° 0.3 mm 3 mps 751 mmHg 75%
20:00 +10°C° 0.3 mm 3 mps 751 mmHg 80%
21:00 +10°C° 0.2 mm 3 mps 751 mmHg 82%
22:00 +9°C° 0.2 mm 3 mps 751 mmHg 84%
23:00 +9°C° 0.2 mm 3 mps 751 mmHg 86%

23 April, Friday

Time Temperature Precipitation Wind Pressure Humidity
00:00 +8°C° 0 mm 3 mps 751 mmHg 88%
01:00 +8°C° 0 mm 3 mps 750 mmHg 89%
02:00 +8°C° 0 mm 3 mps 750 mmHg 91%
03:00 +7°C° 0 mm 3 mps 750 mmHg 92%
04:00 +7°C° 0 mm 3 mps 750 mmHg 93%
05:00 +7°C° 0 mm 3 mps 750 mmHg 93%
06:00 +8°C° 0 mm 3 mps 751 mmHg 87%
07:00 +10°C° 0 mm 4 mps 751 mmHg 81%
08:00 +12°C° 0 mm 4 mps 751 mmHg 75%
09:00 +13°C° 0.4 mm 5 mps 751 mmHg 70%
10:00 +14°C° 0.4 mm 5 mps 751 mmHg 64%
11:00 +16°C° 0.4 mm 5 mps 751 mmHg 59%
12:00 +16°C° 0.6 mm 6 mps 750 mmHg 57%
13:00 +16°C° 0.6 mm 6 mps 750 mmHg 54%
14:00 +17°C° 0.6 mm 6 mps 750 mmHg 52%
15:00 +16°C° 0.7 mm 5 mps 750 mmHg 57%
16:00 +15°C° 0.7 mm 4 mps 750 mmHg 61%
17:00 +15°C° 0.7 mm 4 mps 750 mmHg 66%
18:00 +13°C° 0.8 mm 3 mps 750 mmHg 74%
19:00 +12°C° 0.8 mm 3 mps 750 mmHg 81%
20:00 +10°C° 0.8 mm 3 mps 751 mmHg 89%
21:00 +10°C° 0.3 mm 3 mps 751 mmHg 90%
22:00 +9°C° 0.3 mm 2 mps 751 mmHg 92%
23:00 +9°C° 0.3 mm 2 mps 751 mmHg 93%
Show more